Hyannis, MA

2:34 PM EDT on April 22, 2018 (GMT -0400)
Barnstable Municipal-Boardman-Polando Field

Weather History for KHYA - September, 2014

Change the Weather History Date:

Monday, September 15, 2014

  Actual Average Record
Temperature  
Mean Temperature 55 °F -  
Max Temperature 64 °F 71 °F 85 °F (1976)
Min Temperature 46 °F 55 °F 38 °F (1960)
Degree Days  
Heating Degree Days 10    
Growing Degree Days 5 (Base 50)    
Moisture  
Dew Point 48 °F    
Average Humidity 72    
Maximum Humidity 93    
Minimum Humidity 50    
Precipitation  
Precipitation 0.00 in - - ()
Sea Level Pressure  
Sea Level Pressure 30.17 in    
Wind  
Wind Speed 3 mph (NNE)    
Max Wind Speed 9 mph    
Max Gust Speed -    
Visibility 10 miles    
Events      
Averages and records for this station are not official NWS values.
T = Trace of Precipitation, MM = Missing Value Source: NWS Daily Summary

Daily Weather History Graph

Daily Weather History Graph

Search for Another Location

Airport or City:

Astronomy

Sep. 15, 2014 Rise Set
Actual Time 6:21 AM EDT 6:50 PM EDT
Civil Twilight 5:53 AM EDT 7:18 PM EDT
Nautical Twilight 5:20 AM EDT 7:51 PM EDT
Astronomical Twilight 4:46 AM EDT 8:24 PM EDT
Moon 11:26 PM EDT (9/15) 1:23 PM EDT (9/15)
Length of Visible Light 13h 24m
Length of Day
12h 29m
Waning Gibbous, 54% of the Moon is Illuminated
Sep 15
Waning Gibbous
Sep 15
Last Quarter
Sep 24
New
Oct 1
First Quarter
Oct 8
Full

Hourly Weather History & Observations

Time (EDT) Temp. Dew Point Humidity Pressure Visibility Wind Dir Wind Speed Gust Speed Precip Events Conditions
1:56 AM 51.1 °F 46.9 °F 86% 30.19 in 10.0 mi Calm Calm - N/A   Overcast
2:56 AM 53.1 °F 48.0 °F 83% 30.19 in 10.0 mi Calm Calm - N/A   Overcast
4:56 AM 50.0 °F 46.9 °F 89% 30.20 in 10.0 mi Calm Calm - N/A   Overcast
5:56 AM 46.0 °F 44.1 °F 93% 30.20 in 10.0 mi Calm Calm - N/A   Clear
6:56 AM 46.9 °F 44.1 °F 90% 30.21 in 10.0 mi Calm Calm - N/A   Partly Cloudy
7:56 AM 59.0 °F 52.0 °F 78% 30.21 in 10.0 mi Calm Calm - N/A   Mostly Cloudy
8:39 AM 61.0 °F 53.1 °F 75% 30.20 in 10.0 mi NW 9.2 mph - N/A   Mostly Cloudy
8:56 AM 60.1 °F 53.1 °F 78% 30.21 in 10.0 mi NNW 8.1 mph - N/A   Mostly Cloudy
9:56 AM 61.0 °F 53.1 °F 75% 30.21 in 10.0 mi NNW 5.8 mph - N/A   Scattered Clouds
10:56 AM 64.9 °F 51.1 °F 61% 30.19 in 10.0 mi Variable 6.9 mph - N/A   Scattered Clouds
11:06 AM 63.0 °F 50.0 °F 63% 30.19 in 10.0 mi NW 8.1 mph - N/A   Mostly Cloudy
11:15 AM 63.0 °F 51.1 °F 65% 30.18 in 10.0 mi North 9.2 mph - N/A   Mostly Cloudy
11:56 AM 63.0 °F 51.1 °F 65% 30.18 in 10.0 mi NW 8.1 mph - N/A   Mostly Cloudy
12:56 PM 63.0 °F 46.0 °F 54% 30.17 in 10.0 mi NNE 5.8 mph - N/A   Mostly Cloudy
1:56 PM 64.0 °F 45.0 °F 50% 30.15 in 10.0 mi North 6.9 mph - N/A   Overcast
2:56 PM 64.0 °F 46.0 °F 52% 30.14 in 10.0 mi NNE 4.6 mph - N/A   Overcast
3:56 PM 63.0 °F 46.9 °F 56% 30.14 in 10.0 mi NNE 8.1 mph - N/A   Overcast
4:56 PM 64.0 °F 46.9 °F 54% 30.12 in 10.0 mi NNE 4.6 mph - N/A   Scattered Clouds
5:56 PM 63.0 °F 46.9 °F 56% 30.13 in 10.0 mi NE 6.9 mph - N/A   Mostly Cloudy
6:56 PM 57.0 °F 48.0 °F 72% 30.12 in 10.0 mi East 3.5 mph - N/A   Clear
7:56 PM 52.0 °F 46.0 °F 80% 30.13 in 10.0 mi Calm Calm - N/A   Clear
8:56 PM 52.0 °F 46.0 °F 80% 30.14 in 10.0 mi NE 3.5 mph - N/A   Clear
9:56 PM 51.1 °F 46.0 °F 83% 30.13 in 10.0 mi East 3.5 mph - N/A   Clear
10:56 PM 51.1 °F 46.0 °F 83% 30.12 in 10.0 mi ENE 3.5 mph - N/A   Clear
11:56 PM 52.0 °F 46.0 °F 80% 30.11 in 10.0 mi Calm Calm - N/A   Clear